カタログに戻る

FENGYUN 1C DEB

運用中SSO
NORAD 29818·DEBRIS·🇨🇳 China

打ち上げ May 10, 1999 から Taiyuan Satellite Launch Center

Loading…

次のパス (今後24時間)

TLE

最新Source: Space-Track

元期: Sep 14, 2026, 20:58 UTC

1 29818U 99025DL  26257.87393122  .00000217  00000-0  15299-3 0  9999
2 29818  98.6822 128.9245 0114125 330.2253  44.7405 14.04671181  6810

AllMySatでFENGYUN 1C DEBをリアルタイム追跡

Download on the App Store